TimeEDT,TemperatureF,Dew PointF,Humidity,Sea Level PressureIn,VisibilityMPH,Wind Direction,Wind SpeedMPH,Gust SpeedMPH,PrecipitationIn,Events,Conditions,WindDirDegrees,DateUTC
12:54 AM,42.1,26.1,53,30.10,10.0,WNW,6.9,-,N/A,,Overcast,290,2013-03-28 04:54:00
1:54 AM,41.0,28.0,60,30.09,10.0,WNW,6.9,-,N/A,,Clear,300,2013-03-28 05:54:00
2:54 AM,39.9,28.0,63,30.09,10.0,WNW,6.9,-,N/A,,Clear,290,2013-03-28 06:54:00
3:54 AM,39.9,28.9,65,30.09,10.0,West,8.1,-,N/A,,Partly Cloudy,280,2013-03-28 07:54:00
4:54 AM,39.0,28.9,67,30.09,10.0,West,4.6,-,N/A,,Partly Cloudy,270,2013-03-28 08:54:00
5:54 AM,37.9,28.0,68,30.09,10.0,West,3.5,-,N/A,,Clear,280,2013-03-28 09:54:00
6:54 AM,37.9,27.0,65,30.09,10.0,West,8.1,-,N/A,,Clear,270,2013-03-28 10:54:00
7:54 AM,39.0,27.0,62,30.10,10.0,West,5.8,-,N/A,,Scattered Clouds,280,2013-03-28 11:54:00
8:54 AM,42.1,28.0,58,30.10,10.0,West,9.2,-,N/A,,Scattered Clouds,280,2013-03-28 12:54:00
9:54 AM,44.1,28.9,55,30.10,10.0,WNW,13.8,25.3,N/A,,Scattered Clouds,300,2013-03-28 13:54:00
10:54 AM,45.0,30.0,56,30.11,10.0,NW,15.0,21.9,N/A,,Overcast,320,2013-03-28 14:54:00
11:54 AM,45.0,30.9,58,30.12,10.0,WNW,12.7,20.7,0.00,,Overcast,300,2013-03-28 15:54:00
12:54 PM,45.0,30.9,58,30.12,10.0,NW,16.1,25.3,N/A,,Overcast,320,2013-03-28 16:54:00
1:54 PM,45.0,28.9,53,30.12,10.0,NW,10.4,-,N/A,,Overcast,320,2013-03-28 17:54:00
2:54 PM,46.9,28.0,48,30.11,10.0,NW,11.5,-,N/A,,Overcast,320,2013-03-28 18:54:00
3:54 PM,46.9,28.0,48,30.11,10.0,NNW,13.8,-,N/A,,Overcast,330,2013-03-28 19:54:00
4:54 PM,48.0,27.0,44,30.12,10.0,NNW,13.8,-,N/A,,Overcast,330,2013-03-28 20:54:00
5:54 PM,48.0,25.0,41,30.13,10.0,NW,10.4,17.3,N/A,,Overcast,310,2013-03-28 21:54:00
6:54 PM,48.0,26.1,42,30.15,10.0,NW,8.1,-,N/A,,Overcast,310,2013-03-28 22:54:00
7:54 PM,46.9,30.0,52,30.17,10.0,WNW,9.2,-,N/A,,Overcast,290,2013-03-28 23:54:00
8:54 PM,46.0,30.0,54,30.19,10.0,WNW,6.9,-,N/A,,Overcast,290,2013-03-29 00:54:00
9:54 PM,45.0,30.0,56,30.21,10.0,WNW,9.2,-,N/A,,Mostly Cloudy,300,2013-03-29 01:54:00
10:54 PM,45.0,30.0,56,30.21,10.0,WNW,6.9,-,N/A,,Overcast,300,2013-03-29 02:54:00
11:54 PM,45.0,30.0,56,30.22,10.0,WNW,6.9,-,N/A,,Overcast,290,2013-03-29 03:54:00